Temperature
13 13 13 13 13 13 13 13 13 13 12 12 12 12 12 12 12 12 12 12 12 12 12 12 11 11 11 11 11 11 11 11 11 11 11 11 10 10
13 13 13 13 13 13 13 13 13 13 12 12 12 12 12 12 12 12 12 12 12 12 12 11 11 11 11 11 11 11 11 11 11 11 10 10 10 10
13 13 13 13 13 13 12 12 12 12 12 12 12 12 12 12 12 11 11 11 11 11 11 11 11 11 11 11 11 11 11 11 10 10 10 10 10 10
13 13 13 13 12 12 12 12 12 12 12 12 12 11 11 11 11 11 11 11 11 11 11 11 11 11 11 10 10 10 10 10 10 10 10 10 10 10
12 12 12 12 12 12 12 12 12 12 12 12 12 11 11 11 11 11 11 11 11 11 11 10 10 10 10 10 10 10 10 10 10 10 10 10 10 10
12 12 12 12 12 12 12 12 12 12 11 11 11 11 11 11 11 11 11 11 10 10 10 10 10 10 10 10 10 10 10 10 10 10 10 10 10 9
12 12 12 12 12 12 12 11 11 11 11 11 11 11 11 11 11 10 10 10 10 10 10 10 10 9 9 9 9 9 9 9 10 10 10 9 9 9
12 11 11 11 11 11 11 11 11 11 11 11 11 11 11 10 10 10 10 10 10 10 10 9 9 9 9 9 9 9 9 9 9 9 9 9 9 9
12 11 11 11 11 11 11 11 11 11 11 11 11 11 10 10 10 10 10 10 9 9 9 9 9 9 9 9 9 9 9 9 9 9 9 9 9 9
11 11 11 11 11 11 11 11 11 11 11 10 10 10 10 10 10 9 9 9 9 9 9 9 9 9 9 9 9 9 8 8 8 8 8 8 8 8
11 11 11 11 11 10 10 10 10 10 10 10 10 10 10 10 9 9 9 9 9 9 8 8 8 8 8 8 8 8 8 8 8 8 8 8 8 8
11 11 11 11 10 10 10 10 10 10 10 10 9 9 9 9 9 9 9 8 8 8 8 8 8 8 8 8 8 8 8 8 8 8 8 8 8 7
11 11 10 10 10 10 10 9 9 9 9 9 9 9 9 9 9 8 8 8 8 8 8 7 7 7 7 7 8 8 8 7 7 7 7 7 7 7
10 10 10 10 10 9 9 9 9 9 9 9 9 9 9 8 8 8 8 8 8 7 7 7 7 7 7 7 7 7 7 7 7 7 7 7 7 7
10 10 9 9 9 9 9 9 9 8 8 8 8 8 8 8 8 8 8 7 7 7 7 7 7 7 6 6 6 7 7 7 7 7 7 7 7 6
9 9 9 9 9 9 8 8 8 8 8 8 8 8 8 7 7 7 7 7 7 7 7 7 6 6 6 6 6 6 6 6 6 6 6 6 6 6
9 9 9 8 8 8 8 8 8 8 7 7 7 7 7 7 7 7 7 7 6 6 7 7 6 6 6 6 6 6 6 6 6 6 6 6 6 6
8 8 8 8 8 8 8 7 7 7 7 7 7 7 7 6 6 6 6 6 6 6 6 6 6 6 6 5 5 5 5 5 6 5 5 5 6 6
8 8 8 8 7 7 7 7 7 7 6 6 6 6 6 6 6 6 6 5 5 5 5 5 5 4 4 4 5 5 5 5 5 5 5 5 5 5
8 7 7 7 7 7 7 7 6 6 6 6 6 6 5 5 5 5 5 5 5 5 5 4 4 4 4 4 4 4 4 4 4 4 4 4 4 4
7 7 7 7 7 7 6 6 6 6 6 5 5 5 5 5 5 5 5 4 4 4 4 4 4 4 3 3 3 4 4 4 3 3 3 3 3 3
7 7 7 7 6 6 6 6 5 5 5 5 5 5 5 4 4 4 4 4 4 3 3 4 3 3 3 3 3 3 3 3 3 3 2 2 2 2
6 6 6 6 6 6 5 5 5 5 5 4 4 4 4 4 4 4 3 3 3 3 3 3 3 2 2 2 2 2 2 2 2 2 2 2 1 1
Wind_Speed
2 2 2 1 2 2 3 4 5 3 2 3 2 2 3 4 4 4 3 2 2 2 1 1 1 1 1 1 1 1 2 1 1 1 1 1 2 2
1 1 1 1 1 2 2 2 3 5 3 3 3 2 3 3 4 4 4 2 2 2 2 2 2 1 1 1 2 1 1 1 1 1 1 1 1 1
0 1 1 1 1 1 2 2 3 3 3 2 1 1 2 1 2 3 3 2 2 2 2 2 2 1 1 1 1 1 1 1 1 1 2 2 2 2
2 1 1 1 1 1 2 2 2 3 4 3 1 1 1 2 2 2 2 1 2 2 2 2 2 2 2 1 1 1 1 1 1 2 2 2 3 3
3 2 2 2 2 2 2 2 2 2 3 3 2 1 1 1 1 0 1 1 1 2 2 3 3 3 2 2 2 1 1 1 1 1 2 3 4 4
3 3 3 3 4 4 3 3 3 3 3 3 2 1 1 0 1 1 0 1 1 1 2 2 3 3 3 3 2 2 2 2 2 2 3 4 5 5
3 3 3 4 5 4 3 4 4 3 3 3 2 1 1 1 2 2 2 1 1 1 0 2 2 2 3 4 4 4 3 3 3 3 3 4 4 5
4 4 3 3 4 5 5 6 6 6 6 4 3 3 4 3 3 2 2 1 2 1 1 2 1 2 4 5 6 6 6 5 5 5 5 4 3 4
5 4 3 3 4 3 3 4 5 7 8 7 6 6 5 6 5 4 3 3 3 3 2 2 1 3 5 7 7 7 8 8 7 7 7 6 5 5
5 5 5 4 4 4 3 2 2 4 5 5 6 6 6 6 7 6 5 3 1 1 2 2 2 3 4 6 8 8 8 9 9 8 8 8 7 7
3 3 4 4 5 5 4 4 3 3 4 5 6 6 6 6 6 4 3 2 1 2 2 2 2 2 2 3 7 8 9 9 9 9 9 9 8 8
2 2 3 4 5 6 5 5 5 4 2 2 2 2 3 4 6 6 5 4 2 2 2 2 2 1 2 2 3 5 7 8 10 10 10 10 9 6
3 2 3 3 4 5 5 5 5 4 3 3 2 1 1 2 3 4 5 5 4 4 3 3 2 2 2 2 2 3 4 4 6 8 9 10 10 8
4 3 3 4 4 5 4 4 4 3 2 2 2 2 2 3 3 4 5 5 5 5 5 4 3 3 3 3 3 2 3 5 5 5 6 8 9 11
4 5 4 4 4 3 3 4 3 2 2 2 3 4 4 4 3 2 2 3 3 3 4 5 3 3 3 4 4 3 3 3 5 5 5 5 6 5
3 3 3 3 3 2 2 2 2 3 3 3 3 3 2 1 2 2 2 1 1 2 3 4 5 4 3 4 4 4 3 3 3 4 4 5 6 7
2 1 1 1 1 1 1 1 2 2 2 2 2 2 2 2 2 2 2 1 2 3 3 2 2 2 3 3 3 4 4 4 4 3 3 4 5 6
3 2 3 3 4 3 3 3 2 3 3 3 3 3 3 3 3 2 1 2 3 4 3 2 1 2 2 2 4 4 4 4 4 3 2 4 6 5
3 4 4 4 4 4 4 4 4 4 3 3 3 3 3 2 2 2 2 2 3 3 3 2 1 1 3 5 4 4 4 4 3 3 3 4 5 5
3 4 5 5 4 4 4 4 3 3 3 3 3 3 3 3 3 3 3 3 3 3 3 2 2 3 5 6 4 4 5 4 3 4 4 3 4 6
4 4 4 4 4 4 4 4 4 3 3 3 3 3 3 3 3 3 3 4 4 3 4 5 5 5 3 1 3 4 4 5 5 4 3 2 3 3
4 5 5 5 5 5 4 4 3 3 3 3 3 3 3 3 3 4 3 3 4 4 5 4 2 1 1 3 5 5 5 4 5 6 6 5 3 4
4 4 4 4 4 4 4 4 5 4 4 3 3 3 3 3 3 3 3 4 4 3 3 3 2 2 2 3 4 5 5 5 3 3 4 7 9 11
Wind_Direction
220 213 204 220 183 175 163 161 156 175 240 250 252 242 208 191 189 172 175 182 186 178 182 199 196 210 230 245 205 114 70 46 45 80 99 111 119 117
179 171 228 218 175 166 166 164 156 162 197 238 231 228 197 193 191 181 194 199 210 217 215 195 186 171 184 175 151 135 97 89 118 131 158 156 154 158
192 159 202 165 152 157 150 145 151 150 173 237 231 210 173 175 173 189 200 200 220 227 213 195 194 181 165 180 195 182 149 133 202 210 214 206 201 189
211 185 206 162 159 172 158 163 165 164 163 186 212 196 198 188 168 166 191 211 233 238 222 207 202 189 190 197 209 194 193 224 247 242 236 229 221 218
200 191 204 175 195 200 177 174 178 171 157 162 190 200 217 156 119 153 175 240 244 240 240 238 230 229 225 225 220 223 233 237 255 263 265 254 244 231
201 197 193 187 203 204 194 188 175 156 144 148 164 187 199 170 128 177 270 285 267 248 239 241 233 227 237 240 238 238 236 241 256 272 285 274 250 238
216 214 212 201 202 200 199 189 174 168 161 161 171 169 183 174 200 204 205 244 282 228 231 258 236 238 252 245 244 240 238 247 257 267 282 287 256 236
213 224 226 221 219 211 204 195 184 181 183 180 186 196 208 205 194 189 175 164 269 243 177 257 206 238 253 245 243 237 237 241 246 251 256 262 258 248
207 207 223 227 213 210 215 214 218 211 196 184 190 207 204 200 186 188 195 197 225 221 166 238 228 239 254 252 247 240 240 241 244 247 249 250 251 253
216 209 213 227 219 201 193 200 228 226 215 203 202 213 207 196 189 189 194 201 258 244 163 212 237 249 265 256 247 242 245 244 244 247 250 250 249 253
226 214 210 216 216 194 184 201 234 260 242 218 216 220 209 200 181 151 153 158 250 257 198 189 233 260 263 258 252 248 245 243 245 249 250 249 247 249
236 232 222 216 213 191 188 195 214 238 229 210 214 233 218 205 188 179 180 185 211 247 221 187 214 209 270 265 254 255 250 251 251 251 251 248 242 233
216 233 237 220 212 200 190 200 217 210 198 199 205 212 203 202 203 201 194 191 201 234 215 180 201 203 220 270 283 250 232 241 249 251 252 250 241 224
216 225 223 209 204 199 200 206 208 189 184 185 203 224 227 231 228 218 218 218 219 226 218 190 199 206 216 253 267 266 249 241 236 241 243 253 247 240
218 208 201 203 202 208 212 203 191 178 180 197 218 232 231 227 215 211 217 226 242 255 230 216 210 215 212 232 250 254 266 259 230 234 241 236 236 233
229 210 194 190 190 188 196 210 201 192 193 213 225 234 225 211 213 208 206 210 245 287 282 250 226 206 226 242 239 254 246 249 251 245 244 247 243 233
184 143 146 170 186 205 215 222 208 199 211 223 217 224 228 225 229 214 193 189 218 252 282 304 299 252 236 234 246 251 254 264 263 255 247 259 255 238
163 177 199 204 210 214 217 224 218 216 221 221 216 217 221 223 227 216 198 202 228 246 254 268 306 339 334 301 242 245 255 266 271 256 247 257 271 261
187 204 210 214 219 218 216 216 223 225 214 210 217 220 223 228 224 222 217 227 243 251 258 253 240 234 265 281 282 238 242 267 266 265 253 249 266 273
208 212 215 216 216 217 217 219 224 223 213 214 215 216 217 220 224 226 224 228 242 253 261 260 242 236 243 259 271 283 259 247 256 265 273 272 273 282
219 219 219 216 215 214 214 214 216 218 215 211 214 215 215 213 220 225 231 242 244 248 251 255 255 263 267 284 289 288 286 273 261 258 261 274 291 292
223 224 224 221 216 211 207 207 208 211 213 215 217 215 215 213 221 229 235 240 242 246 257 268 280 279 263 259 270 280 290 303 300 283 261 245 247 259
224 224 225 225 222 213 206 204 205 211 213 211 210 213 211 218 228 233 238 242 248 254 262 271 280 275 262 253 264 275 281 290 299 304 291 285 276 272
Height
1531 1531 1531 1531 1531 1532 1532 1533 1534 1534 1534 1534 1535 1534 1534 1534 1534 1534 1534 1533 1533 1532 1532 1531 1530 1530 1529 1529 1528 1528 1528 1527 1526 1526 1525 1525 1525 1525
1529 1529 1529 1529 1529 1530 1530 1531 1531 1532 1532 1532 1533 1533 1533 1533 1533 1532 1532 1532 1531 1531 1530 1529 1529 1528 1528 1527 1527 1527 1526 1526 1526 1525 1525 1525 1525 1525
1527 1527 1527 1527 1527 1527 1527 1528 1529 1530 1530 1530 1531 1531 1531 1531 1531 1531 1531 1530 1530 1529 1528 1528 1527 1527 1526 1526 1526 1525 1525 1525 1524 1524 1524 1523 1524 1524
1525 1525 1525 1525 1525 1525 1525 1525 1526 1527 1527 1527 1528 1528 1529 1529 1529 1529 1529 1528 1528 1527 1527 1526 1526 1525 1525 1524 1524 1524 1523 1523 1523 1522 1522 1522 1522 1522
1523 1522 1522 1522 1522 1522 1522 1523 1523 1524 1525 1525 1525 1526 1526 1527 1526 1526 1526 1526 1526 1525 1525 1524 1524 1524 1523 1523 1523 1522 1522 1521 1521 1520 1520 1519 1519 1519
1520 1520 1520 1520 1520 1520 1520 1520 1521 1521 1522 1522 1523 1523 1523 1524 1524 1524 1523 1524 1523 1523 1523 1522 1522 1522 1522 1521 1521 1520 1520 1519 1519 1518 1517 1515 1514 1514
1518 1518 1518 1518 1517 1517 1517 1518 1518 1518 1519 1519 1520 1520 1520 1521 1521 1521 1521 1521 1521 1521 1520 1520 1520 1520 1520 1519 1519 1518 1518 1517 1516 1515 1514 1512 1510 1510
1514 1514 1515 1515 1515 1515 1515 1515 1516 1516 1516 1516 1517 1517 1517 1518 1518 1518 1518 1518 1517 1518 1518 1518 1518 1517 1517 1517 1517 1516 1515 1515 1514 1513 1512 1510 1509 1509
1511 1511 1511 1512 1512 1512 1512 1512 1512 1513 1513 1514 1513 1514 1514 1515 1515 1515 1515 1515 1515 1515 1515 1514 1515 1514 1515 1514 1514 1514 1513 1512 1511 1510 1510 1509 1508 1508
1508 1508 1508 1508 1508 1509 1509 1509 1509 1509 1510 1510 1510 1511 1511 1512 1512 1512 1512 1512 1512 1512 1512 1512 1511 1511 1511 1511 1511 1511 1510 1509 1509 1508 1507 1506 1506 1506
1504 1504 1504 1504 1505 1505 1506 1505 1506 1506 1506 1507 1507 1508 1508 1508 1509 1509 1508 1508 1508 1508 1509 1508 1508 1507 1507 1507 1508 1507 1507 1506 1506 1505 1504 1503 1503 1502
1500 1500 1500 1501 1501 1501 1501 1501 1501 1502 1503 1503 1503 1504 1504 1504 1505 1505 1505 1505 1504 1505 1505 1505 1504 1504 1503 1503 1503 1503 1503 1502 1502 1501 1501 1500 1500 1499
1495 1496 1496 1497 1497 1498 1498 1498 1498 1498 1499 1499 1499 1499 1500 1500 1500 1501 1501 1502 1502 1501 1502 1501 1501 1500 1500 1499 1499 1499 1499 1498 1498 1497 1497 1497 1496 1495
1491 1491 1492 1492 1493 1493 1494 1494 1494 1495 1495 1495 1495 1495 1495 1495 1496 1497 1497 1498 1498 1498 1498 1498 1497 1496 1496 1494 1494 1494 1494 1494 1493 1492 1492 1492 1491 1491
1487 1487 1488 1488 1489 1489 1489 1490 1490 1490 1490 1490 1490 1490 1491 1492 1492 1492 1493 1493 1493 1493 1493 1493 1493 1492 1492 1490 1489 1489 1488 1488 1488 1488 1487 1486 1486 1485
1483 1483 1483 1484 1484 1484 1485 1485 1485 1485 1486 1486 1486 1487 1487 1488 1488 1488 1488 1488 1488 1488 1489 1488 1488 1487 1486 1486 1485 1484 1484 1483 1483 1482 1481 1480 1480 1479
1478 1478 1479 1479 1479 1480 1480 1480 1481 1481 1481 1482 1482 1482 1482 1483 1483 1483 1483 1483 1483 1483 1483 1483 1483 1482 1482 1481 1480 1479 1479 1478 1478 1477 1476 1474 1474 1473
1474 1473 1473 1474 1474 1475 1475 1475 1476 1476 1477 1477 1478 1478 1478 1478 1478 1478 1478 1478 1478 1478 1478 1478 1478 1477 1477 1476 1476 1475 1474 1473 1472 1471 1470 1469 1467 1467
1468 1468 1468 1469 1469 1470 1470 1471 1471 1472 1472 1473 1473 1473 1473 1473 1473 1473 1473 1473 1473 1474 1474 1473 1473 1472 1471 1469 1470 1470 1469 1467 1466 1465 1464 1463 1461 1460
1463 1463 1464 1464 1465 1465 1466 1466 1467 1467 1468 1468 1468 1469 1469 1469 1469 1469 1468 1468 1468 1469 1468 1468 1468 1468 1467 1466 1464 1464 1464 1463 1461 1459 1458 1456 1455 1454
1458 1458 1459 1459 1460 1460 1461 1462 1462 1462 1463 1463 1463 1464 1464 1464 1464 1464 1464 1464 1464 1463 1462 1462 1463 1463 1463 1461 1459 1457 1458 1457 1456 1454 1452 1450 1448 1447
1453 1454 1454 1455 1455 1455 1456 1456 1457 1458 1458 1458 1459 1459 1459 1459 1459 1459 1459 1459 1458 1458 1457 1457 1457 1457 1456 1455 1453 1452 1451 1450 1450 1449 1448 1446 1444 1441
1449 1449 1449 1450 1450 1451 1451 1451 1452 1452 1453 1453 1454 1454 1455 1455 1455 1455 1454 1454 1454 1453 1452 1451 1451 1450 1450 1449 1448 1446 1445 1444 1443 1441 1441 1440 1439 1437